Weather History for PAWM - June, 2013

Change the Weather History Date:

Friday, June 14, 2013

  Actual Average (PAKK) Record (PAKK)
Temperature  
Mean Temperature 55 °F -  
Max Temperature 66 °F 58 °F 71 °F (2012)
Min Temperature 46 °F 43 °F 35 °F (2001)
Degree Days  
Heating Degree Days 10    
Growing Degree Days 5 (Base 50)    
Moisture  
Dew Point 45 °F    
Average Humidity 75    
Maximum Humidity 100    
Minimum Humidity 31    
Precipitation  
Precipitation 0.00 in - - ()
Sea Level Pressure  
Sea Level Pressure 30.17 in    
Wind  
Wind Speed 5 mph (SSE)    
Max Wind Speed 14 mph    
Max Gust Speed -    
Visibility 9 miles    
Events Rain    
Averages and records for this station are not official NWS values.
T = Trace of Precipitation, MM = Missing Value Source: NWS Daily Summary

Daily Weather History Graph

Daily Weather History Graph

Search for Another Location

Airport or City:

Trip Planner

Search our weather history database for the weather conditions in past years. The results will help you decide how hot, cold, wet, or windy it might be!

Date:

Astronomy

Jun. 14, 2013 Rise Set
Actual Time 4:09 AM AKDT 1:40 AM AKDT
Civil Twilight Sun does not rise Sun does not rise
Nautical Twilight Sun does not rise Sun does not rise
Astronomical Twilight Sun does not rise Sun does not rise
Moon 12:39 PM AKDT (6/14) 2:17 AM AKDT (6/14)
Length of Visible Light 24h 00m
Length of Day
21h 31m
Waxing Crescent, 31% of the Moon is Illuminated
Jun 14
Waxing Crescent
Jun 16
First Quarter
Jun 23
Full
Jun 29
Last Quarter
Jul 7
New

Hourly Weather History & Observations

Time (AKDT) Temp. Dew Point Humidity Pressure Visibility Wind Dir Wind Speed Gust Speed Precip Events Conditions
12:58 AM 64.9 °F 51.1 °F 61% 30.06 in 10.0 mi Calm Calm - N/A   Clear
1:58 AM 64.9 °F 33.1 °F 31% 30.07 in 10.0 mi Calm Calm - N/A   Clear
2:58 AM 64.9 °F 33.1 °F 31% 30.07 in 10.0 mi Calm Calm - N/A   Partly Cloudy
3:58 AM 55.9 °F 39.0 °F 53% 30.08 in 10.0 mi ENE 3.5 mph - N/A   Clear
4:58 AM 57.0 °F 39.9 °F 53% 30.09 in 10.0 mi SE 6.9 mph - N/A   Clear
5:58 AM 53.1 °F 44.1 °F 71% 30.09 in 10.0 mi SE 4.6 mph - N/A   Clear
6:58 AM 51.1 °F 44.1 °F 77% 30.10 in 10.0 mi South 5.8 mph - N/A   Mostly Cloudy
7:58 AM 51.1 °F 43.0 °F 74% 30.13 in 10.0 mi South 6.9 mph - N/A   Scattered Clouds
8:58 AM 51.1 °F 42.1 °F 71% 30.14 in 9.0 mi SSE 6.9 mph - N/A   Partly Cloudy
9:58 AM 52.0 °F 43.0 °F 71% 30.14 in 10.0 mi SSE 9.2 mph - N/A   Clear
10:58 AM 52.0 °F 42.1 °F 69% 30.15 in 10.0 mi SE 6.9 mph - N/A   Partly Cloudy
11:58 AM 55.0 °F 45.0 °F 69% 30.17 in 10.0 mi SSE 8.1 mph - N/A   Overcast
12:58 PM 55.9 °F 45.0 °F 67% 30.19 in 9.0 mi South 13.8 mph - N/A   Overcast
1:58 PM 46.9 °F 42.1 °F 83% 30.20 in 9.0 mi SSE 5.8 mph - 0.00 in Rain Light Rain
2:58 PM 48.0 °F 42.1 °F 80% 30.22 in 9.0 mi South 8.1 mph - 0.00 in   Overcast
3:58 PM 51.1 °F 42.1 °F 71% 30.22 in 9.0 mi South 9.2 mph - N/A   Mostly Cloudy
4:58 PM 52.0 °F 44.1 °F 74% 30.22 in 10.0 mi South 10.4 mph - 0.00 in Rain Light Rain
5:58 PM 52.0 °F 46.9 °F 83% 30.23 in 10.0 mi South 9.2 mph - 0.00 in Rain Light Rain
6:09 PM 51.8 °F 46.4 °F 82% 30.19 in 10.0 mi South 8.1 mph - 0.00 in   Overcast
6:58 PM 50.0 °F 48.0 °F 93% 30.23 in 9.0 mi SSW 13.8 mph - 0.00 in Rain Light Rain
7:58 PM 51.1 °F 48.0 °F 89% 30.23 in 10.0 mi South 9.2 mph - 0.00 in   Overcast
8:58 PM 52.0 °F 48.9 °F 89% 30.22 in 9.0 mi SSE 9.2 mph - 0.00 in   Overcast
9:08 PM 51.8 °F 48.2 °F 88% 30.18 in 9.0 mi South 11.5 mph - N/A   Overcast
9:58 PM 52.0 °F 50.0 °F 93% 30.22 in 10.0 mi South 9.2 mph - N/A   Overcast
10:56 PM 51.8 °F 50.0 °F 94% 30.18 in 4.0 mi South 8.1 mph - N/A   Overcast
10:58 PM 51.1 °F 50.0 °F 96% 30.22 in 4.0 mi South 9.2 mph - N/A   Overcast
11:58 PM 51.1 °F 51.1 °F 100% 30.22 in 6.0 mi South 9.2 mph - N/A   Overcast